CW9086 Weather Reports


time (UTC)temp
F
wind
direction
speed
knots
gust
knots
rain 1hr
in
rain 24hr
in
rain mn
in
humidity
%
barometer
mb
20260506222605 60 210 0.0 2.6 0.00 0.00 0.00 78 1021.2
20260506222107 60 197 0.0 2.6 0.00 0.00 0.00 79 1021.2
20260506221605 59 195 0.0 2.6 0.00 0.00 0.00 79 1021.3
20260506221105 59 195 0.9 2.6 0.00 0.00 0.00 80 1021.3
20260506220605 59 195 0.0 2.6 0.00 0.00 0.00 80 1021.2
20260506220105 58 195 0.9 2.6 0.00 0.00 0.00 81 1021.3
20260506215605 58 195 0.0 2.6 0.00 0.00 0.00 81 1021.3
20260506215104 58 198 0.0 2.6 0.00 0.00 0.00 81 1021.3
20260506213604 57 210 0.0 0.9 0.00 0.00 0.00 81 1021.3
20260506213104 57 210 0.0 2.6 0.00 0.00 0.00 82 1021.3
20260506212604 57 210 0.0 2.6 0.00 0.00 0.00 81 1021.3
20260506212105 57 209 0.9 1.7 0.00 0.00 0.00 81 1021.3
20260506211604 57 209 0.0 1.7 0.00 0.00 0.00 81 1021.3
20260506210604 57 209 0.0 1.7 0.00 0.00 0.00 80 1021.3
20260506210104 57 195 0.0 1.7 0.00 0.00 0.00 80 1021.2
20260506205604 57 195 0.0 1.7 0.00 0.00 0.00 80 1021.3
20260506205104 57 195 0.0 1.7 0.00 0.00 0.00 80 1021.3
20260506204606 57 195 0.0 0.9 0.00 0.00 0.00 80 1021.2
20260506204105 57 195 0.0 0.9 0.00 0.00 0.00 80 1021.3
20260506203605 57 195 0.0 0.9 0.00 0.00 0.00 79 1021.2
20260506203106 57 195 0.0 0.9 0.00 0.00 0.00 80 1021.1
20260506202604 58 195 0.0 0.9 0.00 0.00 0.00 80 1021.1
20260506202104 58 195 0.0 1.7 0.00 0.00 0.00 80 1021.1
20260506201604 58 195 0.0 1.7 0.00 0.00 0.00 80 1021.0
20260506201106 57 195 0.0 0.9 0.00 0.00 0.00 80 1021.0
20260506200106 57 195 0.0 0.9 0.00 0.00 0.00 80 1021.0
20260506195105 57 195 0.0 1.7 0.00 0.00 0.00 81 1020.9
20260506193105 57 195 0.0 0.9 0.00 0.00 0.00 81 1020.8
20260506192604 57 195 0.0 1.7 0.00 0.00 0.00 80 1020.8
20260506192104 57 209 0.0 1.7 0.00 0.00 0.00 80 1020.7
20260506191605 57 209 0.0 2.6 0.00 0.00 0.00 80 1020.7
20260506191104 57 209 0.0 2.6 0.00 0.00 0.00 80 1020.7
20260506190604 57 209 0.0 2.6 0.00 0.00 0.00 80 1020.6
20260506190104 57 209 0.0 0.9 0.00 0.00 0.00 80 1020.6
20260506185605 57 209 0.0 0.9 0.00 0.00 0.00 80 1020.5
20260506185105 57 209 0.0 1.7 0.00 0.00 0.00 80 1020.5
20260506184604 57 209 0.0 1.7 0.00 0.00 0.00 80 1020.5
20260506184104 57 209 0.0 1.7 0.00 0.00 0.00 80 1020.6
20260506183605 57 209 0.0 0.9 0.00 0.00 0.00 81 1020.4
20260506183104 57 209 0.0 0.9 0.00 0.00 0.00 81 1020.5
20260506182604 56 209 0.0 1.7 0.00 0.00 0.00 80 1020.5
20260506182104 56 209 0.0 1.7 0.00 0.00 0.00 80 1020.5
20260506181604 56 209 0.0 2.6 0.00 0.00 0.00 80 1020.4
20260506181103 56 209 0.0 2.6 0.00 0.00 0.00 80 1020.4
20260506180604 56 209 0.9 2.6 0.00 0.00 0.00 80 1020.4
20260506180104 56 209 0.0 2.6 0.00 0.00 0.00 80 1020.3
20260506175605 56 209 0.9 2.6 0.00 0.00 0.00 80 1020.3
20260506174604 56 209 0.0 0.9 0.00 0.00 0.00 81 1020.3
20260506174104 56 209 0.0 0.9 0.00 0.00 0.00 81 1020.3
20260506173605 56 209 0.0 0.9 0.00 0.00 0.00 81 1020.2
20260506173104 56 209 0.0 0.9 0.00 0.00 0.00 81 1020.2
20260506172604 56 209 0.0 0.9 0.00 0.00 0.00 82 1020.2
20260506172104 55 209 0.0 1.7 0.00 0.00 0.00 82 1020.2
20260506171604 55 209 0.0 1.7 0.00 0.00 0.00 82 1020.1
20260506165104 55 209 0.0 0.9 0.00 0.00 0.00 82 1020.0
20260506164604 55 209 0.0 0.9 0.00 0.00 0.00 82 1019.9
20260506164104 55 209 0.0 0.9 0.00 0.00 0.00 82 1019.9
20260506163604 54 209 0.0 0.9 0.00 0.00 0.00 82 1019.9
20260506162605 54 209 0.0 1.7 0.00 0.00 0.00 82 1019.8
20260506162104 54 209 0.0 0.9 0.00 0.00 0.00 82 1019.8
20260506161605 54 209 0.0 0.9 0.00 0.00 0.00 82 1019.7
20260506160105 54 209 0.0 1.7 0.00 0.00 0.00 83 1019.8
20260506155605 54 209 0.0 0.9 0.00 0.00 0.00 83 1019.7
20260506155104 54 209 0.0 0.9 0.00 0.00 0.00 83 1019.7
20260506154604 54 209 0.0 1.7 0.00 0.00 0.00 83 1019.5
20260506154105 54 209 0.0 1.7 0.00 0.00 0.00 83 1019.5
20260506153105 54 209 0.0 1.7 0.00 0.00 0.00 84 1019.4
20260506152105 54 209 0.0 1.7 0.00 0.00 0.00 84 1019.3
20260506151604 54 209 0.0 0.0 0.00 0.00 0.00 84 1019.2
20260506151104 53 209 0.0 1.7 0.00 0.00 0.00 84 1019.1
20260506150604 53 209 0.0 1.7 0.00 0.00 0.00 84 1019.1
20260506150105 53 209 0.0 0.0 0.00 0.00 0.00 84 1019.0
20260506145605 53 209 0.0 0.9 0.00 0.00 0.00 84 1018.9
20260506145105 53 209 0.0 0.9 0.00 0.00 0.00 84 1019.0
20260506144603 53 209 0.0 0.9 0.00 0.00 0.00 84 1019.1
20260506144105 53 209 0.0 0.0 0.00 0.00 0.00 84 1019.2
20260506143604 53 209 0.0 0.0 0.00 0.00 0.00 84 1019.2
20260506143105 53 209 0.0 0.0 0.00 0.00 0.00 84 1019.1
20260506142605 53 209 0.0 0.0 0.00 0.00 0.00 84 1019.1
20260506142104 53 209 0.0 0.0 0.00 0.00 0.00 84 1019.1
20260506141605 53 209 0.0 0.9 0.00 0.00 0.00 83 1019.0
20260506141104 53 209 0.0 0.9 0.00 0.00 0.00 84 1018.7
20260506140605 53 209 0.0 0.0 0.00 0.00 0.00 83 1018.5
20260506135605 53 209 0.0 0.0 0.00 0.00 0.00 83 1018.4
20260506135104 52 209 0.0 0.9 0.00 0.00 0.00 83 1018.5
20260506134604 52 209 0.0 0.9 0.00 0.00 0.00 83 1018.7
20260506133604 52 209 0.0 0.9 0.00 0.00 0.00 83 1018.2
20260506132104 53 209 0.0 0.0 0.00 0.00 0.00 83 1018.6
20260506131103 53 209 0.0 0.9 0.00 0.00 0.00 83 1018.5
20260506130604 53 209 0.0 0.9 0.00 0.00 0.00 83 1018.5
20260506130104 53 209 0.0 0.9 0.00 0.00 0.00 83 1018.3
20260506125605 53 209 0.0 0.0 0.00 0.00 0.00 83 1018.5
20260506124604 53 209 0.0 0.0 0.00 0.00 0.00 83 1018.4
20260506123603 53 209 0.0 0.9 0.00 0.00 0.00 83 1018.5
20260506123104 53 209 0.0 0.9 0.00 0.00 0.00 83 1018.5
20260506122604 53 209 0.0 0.9 0.00 0.00 0.00 83 1018.3
20260506122104 53 209 0.0 0.9 0.00 0.00 0.00 83 1018.1
20260506121603 53 209 0.0 0.0 0.00 0.00 0.00 83 1018.1
20260506121105 53 209 0.0 0.0 0.00 0.00 0.00 83 1018.3
20260506120604 53 209 0.0 1.7 0.00 0.00 0.00 83 1018.3
20260506120103 53 209 0.0 1.7 0.00 0.00 0.00 83 1018.3
20260506115604 53 209 0.0 0.9 0.00 0.00 0.00 83 1018.4
20260506115106 53 209 0.0 0.9 0.00 0.00 0.00 83 1018.4
20260506114603 53 209 0.0 0.9 0.00 0.00 0.00 83 1018.4
20260506114104 53 209 0.0 0.0 0.00 0.00 0.00 83 1018.2
20260506113605 53 209 0.0 0.0 0.00 0.00 0.00 83 1018.3
20260506113103 53 209 0.0 0.0 0.00 0.00 0.00 83 1018.2
20260506112104 53 209 0.0 0.0 0.00 0.00 0.00 83 1018.1
20260506111604 53 209 0.0 0.0 0.00 0.00 0.00 83 1018.0
20260506111105 53 209 0.0 0.0 0.00 0.00 0.00 82 1018.1
20260506110604 53 209 0.0 0.0 0.00 0.00 0.00 82 1018.0
20260506110104 53 209 0.0 0.0 0.00 0.00 0.00 82 1017.9
20260506105605 53 209 0.0 0.0 0.00 0.00 0.00 83 1017.9
20260506104604 53 209 0.0 0.0 0.00 0.00 0.00 83 1017.7
20260506104103 53 209 0.0 0.0 0.00 0.00 0.00 83 1017.6
20260506103603 53 209 0.0 0.0 0.00 0.00 0.00 83 1017.6
20260506103104 53 209 0.0 0.0 0.00 0.00 0.00 83 1017.6
20260506102103 53 209 0.0 0.0 0.00 0.00 0.00 83 1017.6
20260506101103 54 209 0.0 0.0 0.00 0.00 0.00 83 1017.7
20260506100605 54 209 0.0 0.0 0.00 0.00 0.00 83 1017.7
20260506100104 54 209 0.0 0.0 0.00 0.00 0.00 83 1017.6
20260506095604 54 209 0.0 0.0 0.00 0.00 0.00 82 1017.7
20260506095104 54 209 0.0 0.0 0.00 0.00 0.00 82 1017.6
20260506094605 54 209 0.0 0.0 0.00 0.00 0.00 82 1017.6
20260506094105 54 209 0.0 0.0 0.00 0.00 0.00 82 1017.6
20260506093603 54 209 0.0 0.0 0.00 0.00 0.00 82 1017.5
20260506093104 54 209 0.0 0.0 0.00 0.00 0.00 82 1017.5
20260506092603 54 209 0.0 0.9 0.00 0.00 0.00 82 1017.4
20260506092103 54 209 0.0 0.9 0.00 0.00 0.00 82 1017.4
20260506091603 54 209 0.0 0.0 0.00 0.00 0.00 82 1017.5
20260506091106 54 209 0.0 0.0 0.00 0.00 0.00 82 1017.4
20260506090606 54 209 0.0 0.0 0.00 0.00 0.00 82 1017.3
20260506090106 54 209 0.0 0.0 0.00 0.00 0.00 82 1017.2
20260506085605 54 209 0.0 0.0 0.00 0.00 0.00 82 1017.3
20260506085105 54 209 0.0 0.0 0.00 0.00 0.00 82 1017.3
20260506084606 54 209 0.0 0.9 0.00 0.00 0.00 82 1017.2
20260506084105 54 209 0.0 0.9 0.00 0.00 0.00 82 1017.2
20260506083105 54 209 0.0 0.9 0.00 0.00 0.00 82 1017.3
20260506082106 54 209 0.0 0.9 0.00 0.00 0.00 82 1017.1
20260506081608 54 209 0.0 0.9 0.00 0.00 0.00 82 1017.2
20260506081106 54 209 0.0 0.9 0.00 0.00 0.00 82 1017.1
20260506080605 54 209 0.0 0.0 0.00 0.00 0.00 82 1017.0
20260506073105 54 209 0.0 0.0 0.00 0.00 0.00 81 1016.7
20260506072606 54 209 0.0 0.9 0.00 0.00 0.00 81 1016.7
20260506072105 54 209 0.0 0.9 0.00 0.00 0.00 82 1016.6
20260506070605 55 209 0.0 0.9 0.00 0.00 0.00 82 1016.7
20260506070106 55 209 0.0 0.9 0.00 0.00 0.00 82 1016.5
20260506062105 55 209 0.0 0.0 0.00 0.00 0.00 81 1016.4
20260506061605 55 209 0.0 0.0 0.00 0.00 0.00 81 1016.4
20260506061105 55 209 0.0 0.0 0.00 0.00 0.00 81 1016.4
20260506060605 55 209 0.0 0.0 0.00 0.00 0.00 81 1016.4
20260506060106 55 209 0.0 0.0 0.00 0.00 0.00 81 1016.4
20260506051106 55 212 0.0 0.9 0.00 0.00 0.00 81 1016.3
20260506050105 55 212 0.0 0.0 0.00 0.00 0.00 81 1016.2
20260506045105 56 212 0.0 0.0 0.00 0.00 0.00 81 1016.2
20260506044605 56 212 0.0 0.0 0.00 0.00 0.00 81 1016.1
20260506043605 56 212 0.0 0.0 0.00 0.00 0.00 81 1016.1
20260506042605 56 212 0.0 0.0 0.00 0.00 0.00 80 1016.0
20260506042105 56 212 0.0 0.0 0.00 0.00 0.00 80 1016.0
20260506041605 56 212 0.0 0.0 0.00 0.00 0.00 80 1016.0
20260506040105 56 212 0.0 0.0 0.00 0.00 0.00 80 1015.9
20260506035605 56 212 0.0 0.9 0.00 0.00 0.00 80 1015.9
20260506035105 57 212 0.0 0.9 0.00 0.00 0.00 80 1015.7
20260506034105 57 212 0.0 0.0 0.00 0.00 0.00 80 1015.7
20260506033605 57 212 0.0 0.0 0.00 0.00 0.00 79 1015.6
20260506032605 57 212 0.0 0.9 0.00 0.00 0.00 79 1015.6
20260506032107 57 212 0.0 0.9 0.00 0.00 0.00 79 1015.5
20260506030605 58 212 0.0 0.9 0.00 0.00 0.00 78 1015.3
20260506025605 58 212 0.0 0.9 0.00 0.00 0.00 78 1015.3
20260506025106 58 212 0.0 0.9 0.00 0.00 0.00 78 1015.3
20260506024605 58 212 0.0 0.9 0.00 0.00 0.00 78 1015.3
20260506024105 58 212 0.0 0.9 0.00 0.00 0.00 77 1015.3
20260506023606 59 212 0.0 0.9 0.00 0.00 0.00 77 1015.2
20260506023105 59 212 0.0 0.9 0.00 0.00 0.00 77 1015.2
20260506022605 59 212 0.0 0.9 0.00 0.00 0.00 77 1015.2
20260506021605 59 212 0.0 1.7 0.00 0.00 0.00 76 1015.1
20260506021105 59 212 0.0 1.7 0.00 0.00 0.00 76 1015.1
20260506020604 59 212 0.0 1.7 0.00 0.00 0.00 76 1015.1
20260506020105 60 212 0.0 0.9 0.00 0.00 0.00 76 1015.2
20260506015606 60 212 0.0 0.9 0.00 0.00 0.00 75 1015.1
20260506015105 60 212 0.0 0.9 0.00 0.00 0.00 75 1015.1
20260506014605 60 212 0.0 0.9 0.00 0.00 0.00 74 1015.1
20260506014104 60 212 0.0 1.7 0.00 0.00 0.00 74 1015.2
20260506013605 60 212 0.0 1.7 0.00 0.00 0.00 74 1015.2
20260506013104 60 212 0.0 1.7 0.00 0.00 0.00 74 1015.3
20260506012606 60 212 0.0 1.7 0.00 0.00 0.00 74 1015.3
20260506011606 60 206 0.0 1.7 0.00 0.00 0.00 74 1015.3
20260506011104 61 212 0.0 1.7 0.00 0.00 0.00 74 1015.3
20260506010605 61 212 0.0 1.7 0.00 0.00 0.00 73 1015.3
20260506005104 61 212 0.0 1.7 0.00 0.00 0.00 73 1015.3
20260506004604 62 212 0.0 1.7 0.00 0.00 0.00 73 1015.2
20260506004104 62 212 0.0 1.7 0.00 0.00 0.00 73 1015.3
20260506003605 62 212 0.0 1.7 0.00 0.00 0.00 73 1015.2
20260506003104 62 212 0.0 1.7 0.00 0.00 0.00 72 1015.2
20260506002604 62 212 0.0 0.9 0.00 0.00 0.00 73 1015.2
20260506002105 62 212 0.0 2.6 0.00 0.00 0.00 73 1015.2
20260506001606 62 212 0.0 2.6 0.00 0.00 0.00 73 1015.2
20260506001104 62 212 0.0 1.7 0.00 0.00 0.00 73 1015.2
20260506000604 62 212 0.0 1.7 0.00 0.00 0.00 74 1015.3
20260506000106 62 212 0.0 2.6 0.00 0.00 0.00 73 1015.3
20260505235604 62 212 0.0 2.6 0.00 0.00 0.00 73 1015.5
20260505235106 62 212 0.0 1.7 0.00 0.00 0.00 73 1015.4
20260505234605 62 212 0.0 1.7 0.00 0.00 0.00 73 1015.5
20260505234104 62 212 0.9 1.7 0.00 0.00 0.00 74 1015.6
20260505233605 62 212 0.0 1.7 0.00 0.00 0.00 73 1015.5
20260505233104 62 212 0.0 1.7 0.00 0.00 0.00 73 1015.5
20260505232604 63 212 0.9 1.7 0.00 0.00 0.00 72 1015.6
20260505232105 63 212 0.0 2.6 0.00 0.00 0.00 73 1015.6
20260505231604 63 212 0.0 2.6 0.00 0.00 0.00 72 1015.6
20260505231105 63 212 0.0 1.7 0.00 0.00 0.00 74 1015.6
20260505230605 63 212 0.0 1.7 0.00 0.00 0.00 73 1015.6
20260505230105 63 212 0.0 1.7 0.00 0.00 0.00 73 1015.6
20260505225606 63 212 0.0 1.7 0.00 0.00 0.00 74 1015.7
20260505224604 63 212 0.0 1.7 0.00 0.00 0.00 74 1015.8
20260505224105 63 212 0.0 1.7 0.00 0.00 0.00 73 1015.8
20260505223605 63 212 0.9 1.7 0.00 0.00 0.00 73 1015.8
20260505223104 63 212 0.0 0.9 0.00 0.00 0.00 73 1015.8